Batumi International Airport
UGSB : rendu visible

Aérodrome :











RETROUVEZ-NOUS SUR...

 
LOGIN :

S'inscrire | Disclaimer

   EN    FR    IT 

 









Légende :    VFR   VFR Marginal   IFR   IFR Intensif   IFR Très Intensif
Visi : 
Plafond : 
>= 8 km
>= 3000ft
5 à 8 km
1000 à 3000 ft
1500m à 5 km
500 à 1000 ft
800 à 1500m
200 à 500 ft
< 800m
< 200 ft
Symboles :   Orages  Brouillard  Fortes neiges  Fortes précipitations  Vent > 20 kt







- Altitude de l'aérodrome : 105 ft
- Code IATA : BUS


UGSB - Batumi International

DERNIER METAR :
  • 252330Z 13008KT CAVOK 05/03 Q1018 R13/CLRD70 NOSIG

METARs EXPIRÉS :
  • 252300Z 13010KT CAVOK 06/03 Q1018 R13/CLRD70 NOSIG
  • 252230Z 13010KT CAVOK 06/03 Q1018 R13/CLRD70 NOSIG
  • 252200Z 13009KT CAVOK 06/04 Q1018 R13/CLRD70 NOSIG
  • 252130Z 13009KT CAVOK 06/04 Q1019 R13/CLRD70 NOSIG
  • 252100Z 13009KT CAVOK 06/04 Q1019 R13/70D NOSIG

TAF TAF UGSB
Valide du 26 à 00h jusqu'au 27 à 00h UTC


252300Z 2600/2624 13014KT CAVOK TX12/2611Z TN04/2602Z
BECMG 2608/2610 VRB03KT
FIR UGGG / Asie



MET'MAP, la Météo Aéronautique d'un coup d'oeil ! - Copyright ORBIFLY Décembre 2007 - Disclaimer

ORBIFLY MET'MAP TEAM :

Programmation & Développement : Alexandra Zaïnal
Conception & Développement : Baudouin d'Aumeries
Co-Programmation & Développement : Marc-Olivier Méhu
Soutien technique & logistique : Manuel Goepfert

Contact : metmap@orbifly.com




SOURCES & CREDITS :

   NOAA       Earth
Advisory